Погода в Рассухе

Россия / Брянская область     52°47′57″N   32°57′18″E
темп.,
°C
ветер,
м/с
пор.,
м/с
влажн.,
%
обл.,
%
осадки,
мм/ч
давл.,
гПа
погр.,
м
18 января, вт
вт1800:00−3з7159281 0.1 991504
03:00−4сз111893100 1.7 993986
06:00−6ссз111991100 1.1 9971126
09:00−7ссз111888100 1.6 1002965
12:00−7ссз101786100 0.1 1006951
15:00−7ссз91687100 0.1 1009944
18:00−8ссз91687100 0.1 1013794
21:00−8ссз91788100 0.1 1017666
19 января, ср
ср1900:00−9ссз7159090 0.0 1020461
03:00−11ссз5129355 0.0 1022247
06:00−14ссз3896100 0.0 1023111
09:00−15сз2597100 0.0 102468
12:00−8зсз248916 0.0 1023158
15:00−5зюз249016 0.0 1021273
18:00−10ююз369680 0.0 102070
21:00−9ююз410935 0.0 1019136
20 января, чт
чт2000:00
03:00−7ю51195100 0.0 1015225
06:00−7ю51296100 0.1 1013276
09:00
12:00−4ю71495100 0.2 1009507
15:00−2ю81492100 0.3 1006689
18:00−3ю81588100 0.0 1005626
21:00−4ю71596100 0.8 1005639
21 января, пт
пт2100:00−4ю71496100 1.9 1004592
03:00−4ю61296100 3.5 1003510
06:00−4ю51197100 1.6 1001474
09:00−3ююз3796100 2.8 1001282
12:00−4ююз51093100 0.0 1002525
15:00−4ююз51095100 0.2 1001598
18:00−4ююз51195100 0.4 1001512
21:00−4ююз51195100 0.8 1002502
22 января, сб
сб2200:00−3ююз61296100 0.8 1002667
03:00−4ююз51196100 1.4 1004431
06:00−5ююз4896100 0.4 1006248
09:00−7ю379889 0.5 1008136
12:00−4ю359495 0.2 1010316
15:00−3ю249095 0.3 1012479
18:00−6ююв2298100 0.2 101429
21:00−7юв239799 0.7 101776